Find Starlink 1221

NORAD ID: 45227 Int'l Des: 2020-012 Owner: SPXS Country: US Constellation: starlink operational
LEOCIRCULAR

当前视图

正在加载3D地球...

About Starlink 1221

Starlink 1221 (NORAD 45227) is a starlink constellation satellite (v1.0) launched Feb 17, 2020 by SPXS of US. It operates in LEO, CIRCULAR orbit with a mass of 260.00 kg.

即将过境

Passes for default location (London). Set your location on the main map for personalized predictions.

高度历史

Loading altitude history...

两行轨道根数

1 45227U 20012BB 26262.94758427 .00016118 00000-0 28036-3 0 9998
2 45227 53.0610 63.7360 0002125 220.0167 140.0685 15.50975008366751
Epoch: Sep 19, 2026 • Age: 12 hours

当前状态

高度 416.4 km
远地点 / 近地点 N/A
速度 7.66 km/s
星下点 -14.64°S, 97.05°E
发射日期 Feb 17, 2020
运行时间 6.5 years
类型 internet

技术详情

分类 Payload
质量 260.00 kg
干质量 248.00 kg
长度 0.20 m
跨度 9.00 m
形状 ? Box + pan
制造商 SPXS
平台类型 Starlink
阶段状态 In Orbit
所有者/国家 SPXS/US

Most Searched